TimeEST,TemperatureF,Dew PointF,Humidity,Sea Level PressureIn,VisibilityMPH,Wind Direction,Wind SpeedMPH,Gust SpeedMPH,PrecipitationIn,Events,Conditions,WindDirDegrees,DateUTC
12:15 AM,21.2,19.4,93,29.76,7.0,NNW,6.9,-,N/A,,Overcast,330,2012-12-28 05:15:00
12:35 AM,21.2,19.4,93,29.76,9.0,NW,8.1,-,N/A,,Overcast,310,2012-12-28 05:35:00
12:55 AM,21.2,19.4,93,29.77,10.0,WNW,11.5,-,N/A,,Overcast,300,2012-12-28 05:55:00
1:15 AM,21.2,17.6,86,29.78,10.0,WNW,10.4,17.3,N/A,,Overcast,300,2012-12-28 06:15:00
1:35 AM,21.2,17.6,86,29.79,5.0,WNW,8.1,-,N/A,,Overcast,300,2012-12-28 06:35:00
1:55 AM,21.2,19.4,93,29.80,3.0,NW,6.9,-,N/A,,Overcast,310,2012-12-28 06:55:00
2:15 AM,21.2,19.4,93,29.82,5.0,NW,8.1,-,N/A,,Overcast,310,2012-12-28 07:15:00
2:55 AM,21.2,19.4,93,29.83,5.0,WNW,9.2,-,N/A,,Overcast,300,2012-12-28 07:55:00
3:15 AM,21.2,21.2,100,29.84,5.0,WNW,5.8,-,N/A,,Overcast,300,2012-12-28 08:15:00
3:35 AM,21.2,19.4,93,29.85,9.0,WNW,8.1,-,N/A,,Overcast,300,2012-12-28 08:35:00
3:55 AM,21.2,19.4,93,29.85,10.0,NW,9.2,-,N/A,,Overcast,320,2012-12-28 08:55:00
4:55 AM,23.0,19.4,86,29.86,10.0,NNW,12.7,19.6,N/A,,Overcast,330,2012-12-28 09:55:00
5:15 AM,23.0,19.4,86,29.87,10.0,NW,12.7,18.4,N/A,,Overcast,320,2012-12-28 10:15:00
5:35 AM,23.0,17.6,80,29.88,10.0,NW,11.5,-,N/A,,Overcast,310,2012-12-28 10:35:00
5:55 AM,23.0,17.6,80,29.88,10.0,NNW,12.7,17.3,N/A,,Overcast,330,2012-12-28 10:55:00
6:15 AM,23.0,19.4,86,29.89,10.0,NW,9.2,18.4,N/A,,Overcast,320,2012-12-28 11:15:00
7:35 AM,23.0,19.4,86,29.92,10.0,WNW,5.8,-,N/A,,Overcast,290,2012-12-28 12:35:00
7:55 AM,23.0,19.4,86,29.94,10.0,WNW,6.9,-,N/A,,Overcast,290,2012-12-28 12:55:00
8:15 AM,23.0,19.4,86,29.94,10.0,WNW,6.9,-,N/A,,Overcast,300,2012-12-28 13:15:00
8:55 AM,23.0,19.4,86,29.96,10.0,NNW,5.8,-,N/A,,Overcast,330,2012-12-28 13:55:00
9:35 AM,23.0,19.4,86,29.96,10.0,North,4.6,-,N/A,,Overcast,360,2012-12-28 14:35:00
9:55 AM,24.8,19.4,80,29.97,10.0,North,4.6,-,0.01,,Overcast,350,2012-12-28 14:55:00
10:15 AM,24.8,17.6,74,29.98,10.0,NNW,5.8,-,N/A,,Overcast,340,2012-12-28 15:15:00
10:35 AM,24.8,17.6,74,29.97,10.0,North,5.8,-,N/A,,Overcast,360,2012-12-28 15:35:00
10:55 AM,24.8,17.6,74,29.97,10.0,NNW,5.8,-,N/A,,Overcast,340,2012-12-28 15:55:00
11:15 AM,24.8,17.6,74,29.97,10.0,North,6.9,-,N/A,,Overcast,360,2012-12-28 16:15:00
11:35 AM,24.8,17.6,74,29.97,10.0,North,5.8,-,N/A,,Overcast,350,2012-12-28 16:35:00
11:55 AM,24.8,19.4,80,29.96,10.0,North,5.8,-,N/A,,Overcast,350,2012-12-28 16:55:00
12:15 PM,24.8,19.4,80,29.96,10.0,North,5.8,-,N/A,,Overcast,360,2012-12-28 17:15:00
12:35 PM,26.6,19.4,74,29.96,10.0,North,4.6,-,N/A,,Overcast,350,2012-12-28 17:35:00
12:55 PM,26.6,19.4,74,29.95,10.0,North,6.9,-,N/A,,Overcast,360,2012-12-28 17:55:00
1:55 PM,26.6,19.4,74,29.96,10.0,North,5.8,-,0.01,,Overcast,10,2012-12-28 18:55:00
2:15 PM,26.6,21.2,80,29.96,10.0,North,5.8,-,N/A,,Overcast,10,2012-12-28 19:15:00
2:55 PM,28.4,21.2,74,29.96,10.0,West,3.5,-,0.01,,Overcast,280,2012-12-28 19:55:00
3:15 PM,28.4,21.2,74,29.96,10.0,West,5.8,-,N/A,,Overcast,270,2012-12-28 20:15:00
3:35 PM,28.4,23.0,80,29.97,10.0,West,10.4,-,N/A,,Overcast,270,2012-12-28 20:35:00
4:35 PM,28.4,21.2,74,29.98,10.0,WNW,8.1,-,N/A,,Overcast,290,2012-12-28 21:35:00
4:55 PM,28.4,21.2,74,29.99,10.0,West,9.2,-,N/A,,Overcast,280,2012-12-28 21:55:00
5:35 PM,28.4,21.2,74,30.00,10.0,WNW,6.9,-,N/A,,Overcast,290,2012-12-28 22:35:00
6:15 PM,28.4,21.2,74,30.00,10.0,NW,4.6,-,N/A,,Overcast,310,2012-12-28 23:15:00
6:35 PM,28.4,21.2,74,30.01,10.0,NW,4.6,-,N/A,,Overcast,320,2012-12-28 23:35:00
6:55 PM,28.4,21.2,74,30.01,10.0,Calm,Calm,-,N/A,,Overcast,0,2012-12-28 23:55:00
7:15 PM,28.4,21.2,74,30.00,10.0,Calm,Calm,-,N/A,,Overcast,0,2012-12-29 00:15:00
7:35 PM,26.6,21.2,80,30.00,10.0,NNE,3.5,-,N/A,,Overcast,30,2012-12-29 00:35:00
7:55 PM,26.6,21.2,80,30.01,10.0,Calm,Calm,-,N/A,,Overcast,0,2012-12-29 00:55:00
8:15 PM,26.6,21.2,80,30.01,10.0,Calm,Calm,-,N/A,,Scattered Clouds,0,2012-12-29 01:15:00
8:35 PM,24.8,19.4,80,30.00,10.0,Calm,Calm,-,N/A,,Clear,0,2012-12-29 01:35:00
8:55 PM,24.8,21.2,86,30.00,10.0,North,3.5,-,N/A,,Clear,360,2012-12-29 01:55:00
9:15 PM,24.8,19.4,80,30.01,10.0,NNW,3.5,-,N/A,,Partly Cloudy,340,2012-12-29 02:15:00
9:35 PM,21.2,19.4,93,30.01,10.0,Calm,Calm,-,N/A,,Clear,0,2012-12-29 02:35:00
10:15 PM,21.2,19.4,93,30.01,10.0,Calm,Calm,-,N/A,,Clear,0,2012-12-29 03:15:00
10:35 PM,19.4,17.6,93,30.02,10.0,SE,4.6,-,N/A,,Scattered Clouds,130,2012-12-29 03:35:00
10:55 PM,19.4,17.6,93,30.02,10.0,Calm,Calm,-,N/A,,Mostly Cloudy,0,2012-12-29 03:55:00
11:15 PM,19.4,19.4,100,30.01,10.0,Calm,Calm,-,N/A,,Scattered Clouds,0,2012-12-29 04:15:00
11:35 PM,19.4,17.6,93,30.01,10.0,SE,3.5,-,N/A,,Scattered Clouds,130,2012-12-29 04:35:00
11:55 PM,17.6,15.8,93,30.01,10.0,Calm,Calm,-,N/A,,Partly Cloudy,0,2012-12-29 04:55:00